TimePST,TemperatureF,Dew PointF,Humidity,Sea Level PressureIn,VisibilityMPH,Wind Direction,Wind SpeedMPH,Gust SpeedMPH,PrecipitationIn,Events,Conditions,WindDirDegrees,DateUTC
12:53 AM,55.9,48.0,75,30.00,10.0,SSE,5.8,-,N/A,,Overcast,160,2013-01-10 08:53:00
1:03 AM,55.4,48.2,77,30.00,10.0,South,6.9,-,N/A,,Overcast,180,2013-01-10 09:03:00
1:53 AM,55.0,48.0,77,30.00,10.0,SW,6.9,-,N/A,,Overcast,230,2013-01-10 09:53:00
2:23 AM,55.4,48.2,77,30.00,10.0,SW,3.5,-,N/A,,Overcast,230,2013-01-10 10:23:00
2:53 AM,55.0,46.9,74,29.99,10.0,SSW,4.6,-,N/A,,Overcast,200,2013-01-10 10:53:00
3:41 AM,55.4,48.2,77,29.98,10.0,Calm,Calm,-,0.00,Rain,Light Rain,0,2013-01-10 11:41:00
3:53 AM,55.0,48.0,77,29.97,10.0,Calm,Calm,-,0.00,,Overcast,0,2013-01-10 11:53:00
4:02 AM,55.4,48.2,77,29.97,10.0,Calm,Calm,-,N/A,,Overcast,0,2013-01-10 12:02:00
4:15 AM,55.4,48.2,77,29.97,10.0,SW,6.9,-,N/A,,Overcast,220,2013-01-10 12:15:00
4:53 AM,53.1,48.9,86,29.97,5.0,SSW,6.9,-,0.00,Rain,Light Rain,210,2013-01-10 12:53:00
5:37 AM,53.6,48.2,82,29.95,10.0,SE,6.9,-,0.01,,Overcast,130,2013-01-10 13:37:00
5:53 AM,53.1,48.9,86,29.96,10.0,Calm,Calm,-,0.01,,Mostly Cloudy,0,2013-01-10 13:53:00
6:36 AM,53.6,48.2,82,29.96,10.0,Variable,3.5,-,0.01,Rain,Light Rain,0,2013-01-10 14:36:00
7:13 AM,53.6,42.8,67,29.97,10.0,West,9.2,18.4,N/A,,Mostly Cloudy,270,2013-01-10 15:13:00
7:53 AM,53.1,39.9,61,29.98,10.0,West,9.2,-,N/A,,Mostly Cloudy,260,2013-01-10 15:53:00
8:53 AM,53.1,39.9,61,29.99,10.0,WSW,5.8,-,N/A,,Mostly Cloudy,240,2013-01-10 16:53:00
9:53 AM,54.0,39.9,59,29.99,10.0,SW,10.4,-,N/A,,Scattered Clouds,230,2013-01-10 17:53:00
10:53 AM,55.0,41.0,59,29.96,10.0,West,3.5,-,N/A,,Mostly Cloudy,260,2013-01-10 18:53:00
11:53 AM,57.0,37.0,47,29.93,10.0,West,8.1,-,N/A,,Mostly Cloudy,260,2013-01-10 19:53:00
12:53 PM,57.9,37.0,46,29.92,10.0,NW,11.5,16.1,N/A,,Mostly Cloudy,320,2013-01-10 20:53:00
1:53 PM,57.9,32.0,37,29.93,10.0,West,10.4,-,N/A,,Scattered Clouds,270,2013-01-10 21:53:00
2:53 PM,57.0,33.1,40,29.95,10.0,West,12.7,25.3,N/A,,Scattered Clouds,280,2013-01-10 22:53:00
3:53 PM,55.9,33.1,42,29.95,10.0,West,15.0,25.3,N/A,,Scattered Clouds,270,2013-01-10 23:53:00
4:53 PM,54.0,34.0,47,29.96,10.0,West,9.2,23.0,N/A,,Scattered Clouds,270,2013-01-11 00:53:00
5:53 PM,53.1,35.1,50,29.97,10.0,West,9.2,19.6,N/A,,Partly Cloudy,280,2013-01-11 01:53:00
6:53 PM,52.0,24.1,34,29.99,10.0,WNW,5.8,16.1,N/A,,Partly Cloudy,290,2013-01-11 02:53:00
7:53 PM,51.1,23.0,33,30.02,10.0,WNW,9.2,-,N/A,,Clear,300,2013-01-11 03:53:00
8:53 PM,50.0,21.9,33,30.04,10.0,Variable,6.9,16.1,N/A,,Clear,0,2013-01-11 04:53:00
9:53 PM,48.0,25.0,41,30.08,10.0,WNW,4.6,-,N/A,,Clear,290,2013-01-11 05:53:00
10:53 PM,48.0,25.0,41,30.09,10.0,WNW,8.1,-,N/A,,Partly Cloudy,290,2013-01-11 06:53:00
11:53 PM,48.0,25.0,41,30.10,10.0,Variable,4.6,-,N/A,,Clear,0,2013-01-11 07:53:00